Location: Baia Mare
(47.6567°N, 23.5850°E)
Time: 16:02:58
(UTC+03:00)

ISS - Pass Details

Date: 31 May 2018
Orbit: 403 x 409 km, 51.6° (Epoch: 25 September)

Event Time Altitude Azimuth Distance (km) Brightness Sun altitude
Rises 00:49:51 0° 291° (WNW) 2,324 0.4 -20.1°
Reaches altitude 10° 00:52:04 10° 280° (W) 1,460 -0.8 -20.1°
Enters shadow 00:53:21 19° 265° (W) 1,019 -1.8 -20.2°
